GW3247 Weather Reports


time (UTC)temp
C
wind
direction
speed
KPH
gust
KPH
rain 1hr
cm
rain 24hr
cm
rain mn
cm
humidity
%
barometer
mb
20260905134532 16 271 20.9 40.2 0.00 0.48 0.03 76 1007.4
20260905133032 16 236 12.9 41.8 0.00 0.48 0.03 78 1007.3
20260905131537 16 262 25.7 43.5 0.00 0.48 0.03 76 1007.3
20260905130029 16 266 29.0 45.1 0.00 0.48 0.03 75 1007.4
20260905124529 16 261 22.5 33.8 0.00 0.79 0.03 78 1007.2
20260905123035 16 268 20.9 48.3 0.00 0.79 0.03 76 1007.1
20260905121530 16 284 29.0 45.1 0.00 0.79 0.03 77 1006.9
20260905120025 16 287 30.6 46.7 0.00 0.79 0.03 77 1006.7
20260905114522 16 259 27.4 41.8 0.00 1.02 0.03 76 1006.7
20260905113024 16 278 33.8 45.1 0.00 1.02 0.03 77 1006.6
20260905111521 16 277 29.0 41.8 0.00 1.02 0.03 75 1006.5
20260905110018 16 269 24.1 43.5 0.00 1.02 0.03 76 1006.4
20260905104520 16 294 19.3 46.7 0.00 1.14 0.03 76 1006.3
20260905103017 15 255 22.5 40.2 0.03 1.14 0.03 78 1006.0
20260905101514 16 259 20.9 38.6 0.03 1.14 0.03 79 1006.0
20260905100014 16 237 24.1 40.2 0.03 1.14 0.03 77 1005.9
20260905094512 16 276 22.5 43.5 0.03 1.27 0.03 78 1005.7
20260905093011 16 285 33.8 48.3 0.00 1.27 0.00 77 1005.6
20260905091510 16 289 35.4 49.9 0.00 1.27 0.00 76 1005.5
20260905090011 16 254 24.1 38.6 0.00 1.27 0.00 77 1005.5
20260905084507 15 280 33.8 46.7 0.00 1.27 0.00 76 1005.4
20260905083006 16 281 27.4 49.9 0.00 1.27 0.00 78 1005.3
20260905081505 15 288 32.2 46.7 0.00 1.27 0.00 78 1005.1
20260905080005 15 264 25.7 41.8 0.00 1.27 0.00 78 1005.0
20260905074503 15 240 25.7 40.2 0.00 1.27 0.00 78 1004.9
20260905073002 15 290 29.0 38.6 0.00 1.27 0.00 79 1004.9
20260905071602 15 267 22.5 35.4 0.00 1.27 0.00 79 1004.8
20260905070100 15 265 22.5 38.6 0.00 1.27 0.00 79 1004.6
20260905064558 15 286 25.7 43.5 0.00 1.27 0.00 79 1004.5
20260905063054 15 274 19.3 37.0 0.00 1.27 0.00 80 1004.4
20260905061602 15 276 22.5 40.2 0.00 1.27 0.00 80 1004.3
20260905060101 15 295 30.6 45.1 0.00 1.27 0.00 78 1004.0
20260905054555 15 309 27.4 35.4 0.00 1.27 0.00 80 1004.0
20260905053041 15 255 30.6 43.5 0.00 1.27 0.00 80 1003.7
20260905051543 15 281 25.7 40.2 0.00 1.27 0.00 81 1003.6
20260905050038 15 291 20.9 35.4 0.00 1.27 0.00 81 1003.4
20260905044536 15 274 20.9 33.8 0.00 1.27 0.00 81 1003.3
20260905043035 15 247 20.9 37.0 0.00 1.27 0.00 82 1003.0
20260905041533 15 274 22.5 35.4 0.00 1.27 0.00 83 1002.8
20260905040031 15 295 14.5 27.4 0.00 1.27 0.00 82 1002.7
20260905034534 15 276 16.1 33.8 0.00 1.27 0.00 82 1002.5
20260905033030 15 249 19.3 48.3 0.00 1.27 0.00 80 1002.6
20260905031537 15 292 30.6 43.5 0.00 1.27 0.00 81 1002.4
20260905030027 15 293 30.6 43.5 0.00 1.27 0.00 81 1002.3
20260905024550 15 287 29.0 51.5 0.00 1.27 0.00 81 1002.1
20260905023024 15 278 41.8 53.1 0.00 1.27 0.00 81 1002.0
20260905021521 15 278 40.2 57.9 0.00 1.27 0.00 82 1001.8
20260905020018 15 283 29.0 49.9 0.00 1.27 0.00 83 1001.6
20260905014515 15 294 35.4 48.3 0.00 1.27 0.00 83 1001.5
20260905013012 15 296 29.0 46.7 0.00 1.27 0.00 84 1001.2
20260905011614 15 281 27.4 37.0 0.00 1.27 0.00 85 1001.2
20260905010009 14 229 22.5 35.4 0.00 1.27 0.00 86 1001.2
20260905004508 14 307 16.1 30.6 0.00 1.30 0.00 86 1001.0
20260905003009 15 274 29.0 37.0 0.00 1.30 0.00 83 1000.7
20260905001502 15 304 22.5 30.6 0.00 1.30 0.00 84 1000.7
20260905000001 15 289 19.3 35.4 0.00 1.30 0.00 83 1000.6
20260904234600 15 276 19.3 32.2 0.00 1.30 0.00 84 1000.7
20260904233058 15 297 25.7 46.7 0.00 1.30 0.00 82 1000.4
20260904231557 15 324 29.0 43.5 0.00 1.30 0.00 82 1000.4
20260904230107 15 266 30.6 48.3 0.00 1.30 0.00 81 1000.5
20260904224603 15 279 35.4 43.5 0.00 1.30 0.00 80 1000.5
20260904223105 15 262 27.4 57.9 0.00 1.30 0.00 81 1000.3
20260904221549 15 279 35.4 45.1 0.00 1.30 0.00 82 1000.0
20260904220045 15 294 24.1 45.1 0.00 1.30 0.00 83 1000.1
20260904214548 15 276 27.4 45.1 0.00 1.30 1.30 83 999.8
20260904213041 15 287 24.1 43.5 0.00 1.30 1.30 84 999.8
20260904211538 14 290 22.5 35.4 0.00 1.30 1.30 84 999.8
20260904210036 14 266 20.9 41.8 0.03 1.30 1.30 84 999.7
20260904204535 14 278 20.9 38.6 0.03 1.30 1.30 86 999.4
20260904203032 14 290 20.9 35.4 0.03 1.30 1.30 91 999.4
20260904201540 13 254 8.0 22.5 0.05 1.30 1.30 92 999.4
20260904200041 13 211 9.7 20.9 0.08 1.27 1.27 92 999.4
20260904194528 13 311 12.9 24.1 0.13 1.27 1.27 92 999.2
20260904193036 13 237 12.9 25.7 0.23 1.27 1.27 91 999.0
20260904191524 13 221 12.9 24.1 0.18 1.24 1.24 91 998.8
20260904190022 14 264 12.9 25.7 0.15 1.19 1.19 91 998.8
20260904184519 14 265 11.3 17.7 0.08 1.14 1.14 91 998.7
20260904183019 14 226 9.7 19.3 0.00 1.07 1.07 90 998.6
20260904181517 15 229 8.0 19.3 0.00 1.07 1.07 90 998.4
20260904180016 15 242 8.0 16.1 0.00 1.07 1.07 90 998.7
20260904174516 15 231 6.4 12.9 0.00 1.35 1.07 90 998.6
20260904173016 15 222 6.4 17.7 0.00 1.35 1.07 90 998.8
20260904171533 15 233 8.0 19.3 0.00 1.35 1.07 90 998.7
20260904170014 15 236 6.4 16.1 0.00 1.35 1.07 89 998.4
20260904164513 15 234 6.4 17.7 0.00 1.37 1.07 89 998.4
20260904163032 15 243 8.0 17.7 0.00 1.37 1.07 89 998.7
20260904161511 15 250 4.8 19.3 0.00 1.37 1.07 90 998.7
20260904160011 16 233 4.8 16.1 0.00 1.37 1.07 90 998.6
20260904154515 16 283 4.8 17.7 0.00 1.37 1.07 89 998.7
20260904153010 16 226 8.0 14.5 0.00 1.37 1.07 89 998.7
20260904151517 16 266 4.8 22.5 0.00 1.37 1.07 90 998.7
20260904150007 15 270 4.8 12.9 0.03 1.37 1.07 90 998.7
20260904144506 15 288 4.8 17.7 0.08 1.42 1.07 90 998.8
20260904143006 15 257 3.2 14.5 0.15 1.42 1.07 90 998.6
20260904141502 14 222 4.8 12.9 0.18 1.42 1.07 91 999.0
20260904140001 14 235 4.8 14.5 0.20 1.40 1.04 91 999.1